Flag for U.S.A. Weather past 2 weeks in Provo, Utah, U.S.A.

Now
97 °F

Passing clouds.


Feels Like: 93 °F
Forecast: 61 / 92 °F
Wind: 8 mph from Southwest

Location: Provo Municipal

Current Time: Jul 25, 2014 at 4:17:39 PM

Latest Report: Jul 25, 2014 at 3:58 PM


Visibility: 15 mi

Pressure: 29.99 "Hg

Humidity: 16%

Dew point: 43 °F

Location of ProvoLocation

Historic Weather in Provo — Graph

°F

Provo temperature yesterday

Maximum temperature yesterday: 97 °F (at 3:50 PM)
Minimum temperature yesterday: 70 °F (at 11:35 PM)
Average temperature yesterday: 80 °F

Past Weeks' High & Low Weather Summary

 TemperatureHumidityPressure
High100 °F (Jul 23, 4:47 PM)94% (Jul 11, 12:15 AM)30.27 "Hg (Jul 11, 12:15 AM)
Low61 °F (Jul 17, 3:55 AM)11% (Jul 22, 5:54 PM)29.93 "Hg (Jul 15, 6:50 PM)
Average75 °F45%30.08 "Hg
* Reported Jul 10 2:14 PM — Jul 25 2:47 PM, Provo, Weather by CustomWeather, © 2014

Note: Actual official high and low records may vary slightly from our data, if they occured in-between our weather recording intervals... More about our weather records

Advertising

Provo weather history for previous 24 hours

 ConditionsComfort  
Time TempWeatherWind HumidityBarometerVisibility
2:47 PM
Jul 25
93 °FPassing clouds.8 mph17%30.02 "Hg15 mi
1:47 PM93 °FPassing clouds.No wind19%30.04 "Hg15 mi
12:53 PM90 °FPassing clouds.3 mph26%30.06 "Hg15 mi
11:49 AM82 °FPassing clouds.No wind42%30.08 "Hg15 mi
10:49 AM79 °FPassing clouds.No wind42%30.09 "Hg15 mi
9:49 AM75 °FScattered clouds.No wind44%30.10 "Hg15 mi
8:49 AM70 °FScattered clouds.5 mph46%30.09 "Hg15 mi
7:51 AM66 °FScattered clouds.6 mph49%30.08 "Hg15 mi
6:49 AM61 °FPassing clouds.No wind55%30.08 "Hg15 mi
6:35 AM61 °FClear.3 mph55%30.07 "Hg10 mi
6:15 AM63 °FClear.3 mph52%30.07 "Hg10 mi
5:55 AM63 °FClear.5 mph56%30.07 "Hg5 mi
5:35 AM63 °FClear.3 mph56%30.06 "Hg10 mi
5:15 AM63 °FClear.5 mph52%30.06 "Hg10 mi
4:55 AM61 °FClear.6 mph55%30.05 "Hg10 mi
4:35 AM61 °FClear.6 mph59%30.06 "Hg10 mi
4:15 AM64 °FClear.3 mph56%30.05 "Hg10 mi
3:55 AM63 °FClear.6 mph59%30.05 "Hg10 mi
3:35 AM63 °FClear.6 mph59%30.04 "Hg10 mi
3:15 AM64 °FClear.6 mph52%30.04 "Hg10 mi
2:55 AM64 °FClear.7 mph56%30.03 "Hg10 mi
2:35 AM66 °FClear.7 mph49%30.03 "Hg10 mi
2:15 AM70 °FClear.6 mph43%30.02 "Hg10 mi
1:55 AM70 °FClear.9 mph46%30.03 "Hg10 mi
1:35 AM72 °FClear.9 mph41%30.02 "Hg10 mi
1:15 AM72 °FClear.7 mph44%30.02 "Hg10 mi
12:55 AM72 °FClear.7 mph47%30.02 "Hg10 mi
12:35 AM66 °FClear.6 mph49%30.01 "Hg10 mi
12:15 AM68 °FClear.6 mph53%30.01 "Hg10 mi
11:55 PM
Jul 24
70 °FClear.7 mph43%30.01 "Hg10 mi
11:35 PM70 °FClear.6 mph53%30.00 "Hg10 mi
11:15 PM72 °FClear.5 mph47%30.00 "Hg10 mi
10:55 PM75 °FClear.6 mph41%30.00 "Hg10 mi
10:35 PM75 °FClear.3 mph44%30.00 "Hg10 mi
10:15 PM75 °FClear.3 mph41%30.00 "Hg10 mi
9:55 PM77 °FClear.3 mph42%29.99 "Hg5 mi
9:35 PM79 °FDense fog.7 mph37%29.98 "Hg1 mi
9:15 PM82 °FSunny.8 mph28%29.98 "Hg10 mi
7:56 PM82 °FScattered clouds.10 mph40%29.96 "Hg15 mi
6:47 PM88 °FScattered clouds.13 mph27%29.96 "Hg15 mi
4:53 PM91 °FScattered clouds.14 mph30%29.98 "Hg15 mi
Weather by CustomWeather, © 2014

See weather overviewHow to use our weather pages